AL YAH 3                
1 43174U 18012A   19265.47410416 -.00000163  00000-0  00000+0 0  9991
2 43174   0.0355 271.1172 0001858 284.2643 316.2582  1.00273143  6189
SES-14                  
1 43175U 18012B   19264.99407203 -.00000285  00000-0  00000+0 0  9993
2 43175   0.0175 209.7711 0001095 344.7487 116.4383  1.00272125  6398
ARIANE 5 R/B            
1 43176U 18012C   19263.69130062  .00000295  00000-0  14945-3 0  9993
2 43176  22.0503  45.6147 7608288 203.6810  83.4286  1.87817844 11305
ARIANE 5 DEB [SYLDA]    
1 43177U 18012D   19264.79667299  .00003064  00000-0  18631-2 0  9995
2 43177  21.6975  45.3366 7589011 205.6117  78.2971  1.89380310 11351